Wetbulb
56.49 56.57 55.94 56.32 57.31 58.45 59.60 61.18 60.88 61.44 63.15 64.18 65.71 66.08 65.97 64.38 63.72 64.30 63.26 61.62 62.30 60.56
53.89 53.23 53.90 54.69 55.66 56.57 57.48 60.56 61.37 62.17 62.16 62.52 63.54 64.39 65.10 64.00 62.34 62.61 60.43 61.31 61.61 60.18
52.76 52.35 53.14 53.32 53.92 54.61 55.90 57.60 57.98 59.27 60.73 61.69 63.09 63.27 63.04 63.42 63.01 58.20 58.42 59.36 59.34 58.66
52.56 52.36 52.56 51.89 52.75 54.12 55.67 55.94 57.24 57.99 57.92 58.26 58.60 61.08 59.27 59.89 61.18 57.74 56.80 57.91 57.76 57.36
51.46 52.38 51.89 52.05 52.81 53.47 53.79 54.59 56.22 57.17 57.05 57.73 58.38 57.96 58.83 58.28 58.72 58.07 57.16 57.91 57.30 57.34
47.96 49.69 51.77 50.78 51.42 52.65 52.47 52.01 53.05 56.63 56.25 56.74 57.42 56.92 60.04 59.61 58.60 57.82 58.64 57.63 56.67 56.51
46.56 46.87 47.50 49.05 50.32 50.49 51.00 51.59 52.46 54.07 55.59 56.23 56.67 56.97 58.04 60.34 60.68 58.99 58.33 58.85 57.62 57.47
46.57 47.26 47.75 47.90 48.28 49.32 50.32 51.02 51.08 51.54 53.76 55.29 56.20 56.57 54.96 56.01 57.63 57.81 56.79 56.84 57.03 56.30
47.13 47.41 47.24 47.40 47.45 47.17 47.30 48.08 49.12 49.53 50.98 52.42 55.10 51.87 51.05 51.97 54.24 56.20 56.36 56.42 57.96 57.17
46.60 46.66 46.93 47.48 46.95 45.97 44.76 45.33 44.83 46.46 48.61 49.61 51.46 48.89 47.55 48.45 52.95 55.16 55.22 53.60 55.39 57.56
45.93 45.99 46.38 46.27 46.38 46.01 43.73 43.34 43.31 44.38 45.71 46.37 48.67 47.89 46.53 46.69 51.01 54.10 52.98 54.77 54.99 56.22
44.11 43.31 43.79 44.75 45.98 45.79 43.21 42.46 42.48 44.09 44.97 45.91 47.81 46.95 46.18 46.15 51.00 52.73 53.06 55.98 56.26 56.80
42.17 42.43 43.89 45.20 46.16 46.43 43.70 44.56 44.43 44.50 45.26 46.31 46.58 45.92 45.05 46.49 52.10 51.13 52.75 53.88 55.67 51.23
42.07 40.49 40.91 41.47 43.31 46.34 45.59 44.99 43.76 43.28 44.30 45.61 46.54 47.43 44.64 43.71 53.60 52.32 53.67 53.90 54.87 56.06
MSLP
1007.72 1007.99 1008.19 1008.41 1008.68 1008.62 1008.53 1008.44 1008.46 1008.51 1008.23 1007.81 1007.47 1007.09 1006.77 1007.15 1007.32 1006.90 1006.09 1007.24 1007.48 1008.38
1007.12 1007.43 1007.80 1007.81 1007.94 1008.12 1008.05 1007.94 1008.01 1008.00 1007.91 1007.68 1007.32 1006.80 1006.38 1006.39 1006.21 1006.13 1006.27 1006.45 1006.84 1007.27
1006.76 1006.86 1007.07 1007.39 1007.64 1007.76 1007.80 1007.64 1007.68 1007.64 1007.40 1007.08 1006.72 1006.38 1005.94 1005.61 1005.30 1005.54 1005.56 1005.69 1006.13 1006.40
1006.73 1006.64 1006.60 1006.78 1006.82 1006.86 1006.98 1007.10 1007.21 1007.19 1007.10 1006.84 1006.44 1006.05 1005.79 1005.55 1005.08 1005.00 1005.14 1005.23 1005.28 1005.32
1006.30 1006.28 1006.29 1006.14 1006.01 1006.05 1006.25 1006.26 1006.38 1006.44 1006.48 1006.37 1006.05 1005.72 1005.39 1005.03 1004.76 1004.68 1004.63 1004.41 1004.55 1004.45
1006.06 1005.93 1005.81 1005.65 1005.40 1005.33 1005.42 1005.49 1005.43 1005.52 1005.67 1005.69 1005.57 1005.34 1004.75 1004.34 1004.01 1003.95 1003.91 1003.88 1003.92 1003.64
1006.64 1006.41 1006.11 1005.58 1005.17 1004.87 1004.67 1004.67 1004.57 1004.60 1004.66 1004.76 1004.79 1004.73 1004.38 1003.69 1003.47 1003.39 1003.17 1003.19 1003.33 1003.49
1006.27 1006.06 1005.80 1005.54 1005.22 1004.82 1004.54 1004.35 1004.14 1004.07 1003.97 1003.95 1004.06 1004.04 1003.96 1003.69 1003.15 1002.72 1002.63 1002.72 1002.56 1002.63
1005.55 1005.38 1005.21 1004.98 1004.77 1004.40 1004.11 1003.98 1003.91 1003.79 1003.66 1003.55 1003.38 1003.41 1003.28 1003.29 1003.24 1002.63 1002.21 1001.92 1001.71 1001.73
1004.79 1004.54 1004.29 1004.10 1003.83 1003.56 1003.51 1003.46 1003.38 1003.25 1003.21 1002.99 1002.76 1002.85 1003.01 1002.80 1002.71 1002.62 1002.14 1001.54 1001.32 1001.07
1004.34 1003.85 1003.38 1003.03 1002.79 1002.56 1002.55 1002.42 1002.42 1002.38 1002.36 1002.23 1002.00 1001.97 1002.20 1002.17 1002.08 1001.73 1001.30 1000.87 1000.86 999.93
1003.73 1003.07 1002.55 1001.70 1001.32 1001.30 1001.35 1001.48 1001.52 1001.42 1001.57 1001.50 1001.32 1001.03 1001.04 1001.20 1001.16 1000.85 1000.38 1000.12 999.94 999.37
1003.17 1002.38 1001.56 1001.01 1000.59 1000.28 1000.12 1000.29 1000.40 1000.46 1000.56 1000.61 1000.60 1000.33 1000.30 1000.39 1000.11 1000.10 999.73 999.36 999.59 999.94
1002.21 1001.80 1001.26 1000.63 1000.25 999.86 999.30 999.26 999.46 999.71 999.79 999.75 999.75 999.58 999.57 999.97 999.53 999.23 998.70 998.58 999.10 998.86
Wind_Speed
5 3 1 0 0 2 2 4 3 5 6 7 6 8 13 12 13 13 12 15 9 8
4 4 4 2 1 1 1 3 5 6 4 7 8 9 10 10 11 10 9 12 12 7
6 5 5 4 4 2 3 1 3 5 6 8 7 10 10 9 9 7 7 7 11 10
6 7 6 5 5 4 3 3 3 3 4 5 6 8 6 9 10 7 7 8 12 13
6 6 6 6 6 5 6 5 6 6 4 5 6 8 8 9 9 10 10 12 10 14
7 7 8 7 7 7 6 6 5 5 5 5 6 7 10 10 10 11 11 11 12 14
7 7 7 7 7 7 7 7 6 6 6 6 6 6 10 11 9 8 9 10 11 12
7 7 7 7 7 7 5 5 6 6 5 6 6 6 6 5 6 8 8 6 9 10
7 7 7 7 7 7 6 5 5 5 5 6 5 10 13 6 5 6 6 7 9 10
10 13 13 12 10 8 7 6 7 7 6 7 6 9 13 13 8 9 7 5 4 7
12 14 14 15 16 13 7 8 7 7 8 7 8 11 16 16 11 10 10 6 5 4
18 20 22 22 17 11 8 8 7 6 7 9 8 12 16 11 8 10 9 4 3 6
17 19 17 16 14 15 9 10 7 7 8 11 12 11 15 11 6 6 4 2 2 9
15 17 19 19 17 12 9 7 7 7 9 11 11 9 11 16 9 6 4 2 4 5
Wind_Direction
137 135 147 155 66 304 314 320 275 227 254 259 258 247 239 235 232 225 207 210 210 200
189 175 196 235 153 204 272 325 351 324 272 242 251 253 236 223 228 226 208 204 209 192
233 229 224 202 230 247 252 4 338 327 329 322 290 251 251 250 244 198 202 196 198 201
253 251 247 233 242 243 220 236 253 256 309 320 325 304 256 249 253 234 211 195 189 198
225 236 242 245 248 245 241 233 218 215 240 267 282 290 255 252 244 228 214 213 202 211
238 229 227 235 242 242 245 252 249 208 227 251 271 285 272 245 241 231 224 216 213 220
296 285 275 262 252 244 243 247 253 235 228 234 245 258 281 270 245 236 224 221 223 232
277 271 273 272 269 273 271 266 274 280 263 248 248 249 250 266 266 237 251 233 230 231
267 271 265 262 264 260 252 249 254 270 275 273 269 261 244 228 253 242 225 242 254 237
273 275 275 268 252 241 236 230 242 248 253 263 257 251 241 235 231 239 226 191 257 267
282 278 276 274 264 249 223 222 219 224 235 246 262 242 245 235 228 235 252 230 192 304
280 283 278 268 259 251 222 227 220 220 241 248 253 243 246 231 222 229 237 226 241 352
284 269 273 280 279 264 221 227 217 224 226 237 255 262 244 211 220 230 249 187 229 216
283 291 285 276 272 278 253 229 229 234 249 250 232 241 233 215 219 231 260 309 302 296